Regional Weather Roundup
Issued by NWS

Home | Current Version | Previous Version | Text Only | Print | Product List | Glossary On
Versions: 1 2 3 4 5 6 7 8 9 10 11 12 13 14 15 16 17 18 19 20 21 22 23 24 25 26 27 28 29 30 31 32 33 34 35 36 37 38 39 40 41 42 43 44 45 46 47 48 49 50
000
ASUS44 KFWD 051015
RWRTX
NORTH TEXAS HOURLY WEATHER ROUNDUP
NATIONAL WEATHER SERVICE FORT WORTH TX
500 AM CDT WED AUG 05 2015

NOTE: "FAIR" INDICATES FEW OR NO CLOUDS BELOW 12,000 FEET WITH NO
SIGNIFICANT WEATHER AND/OR OBSTRUCTIONS TO VISIBILITY.

TXZ118-119-051100-
DALLAS/FORT WORTH METROPLEX

CITY           SKY/WX    TMP DP  RH WIND       PRES   REMARKS
DFW AIRPORT    PTCLDY    84  69  60 S14       29.92S
DALLAS LOVE    PTCLDY    85  69  58 S9        29.93R
FTW MEACHAM    PTCLDY    85  69  58 S16       29.92S
DAL-EXECUTIVE  CLEAR     82  69  64 VRB6      29.93S
FTW-ALLIANCE   CLEAR     83  69  62 S9        29.92S
FTW-NAS-JRB    CLEAR     84  70  62 S12       29.93R
FTW-SPINKS     CLEAR     82  69  64 S7        29.95S
ARLINGTON      CLEAR     84  68  58 S10       29.94R
GRAND PRAIRIE  CLEAR     83  71  65 S7        29.95R
ADDISON        CLEAR     85  72  63 S10G16    29.95S HX  91
MESQUITE       PTCLDY    81  69  68 S8        29.94S
LANCASTER      PTCLDY    82  68  62 S8        29.95R
$$

TXZ091>094-102>105-117-120-121-131>134-051100-
NORTH CENTRAL TEXAS

CITY           SKY/WX    TMP DP  RH WIND       PRES   REMARKS
SHRMAN/DENISON PTCLDY    81  71  72 S8        29.94S
GAINESVILLE    PTCLDY    77  69  74 S5        29.95S
BOWIE          CLEAR     77  67  72 SE5       29.93S
DECATUR        CLEAR     81  66  59 S12       29.94S
DENTON         CLEAR     82  69  64 S9        29.92S
MCKINNEY       PTCLDY    83  70  64 S7        29.93S
GREENVILLE     MOCLDY    82  70  65 S9        29.95R
ROCKWALL       MOCLDY    82  71  68 S9        29.93R
TERRELL        MOCLDY    81  71  71 S8        29.94S
WAXAHACHIE     PTCLDY    81  70  71 S10       29.95S
CLEBURNE       CLEAR     82  73  74 S10G17    29.96S
GRANBURY       CLEAR     84  68  57 SE8       29.94S
$$

TXZ083>090-098>101-113>116-127>130-139>142-154-155-051100-
WESTERN NORTH TEXAS

CITY           SKY/WX    TMP DP  RH WIND       PRES   REMARKS
WICHITA FALLS  CLEAR     77  68  73 S10       29.89F
WF-KICKAPOO    CLEAR     78  69  73 S3        29.91S
VERNON         CLEAR     76  65  68 S5        29.90S
ABILENE        CLEAR     80  64  58 S9        29.96R
ABILENE-DYESS  CLEAR     81  65  57 S12       29.94R
BRECKENRIDGE   CLEAR     82  65  55 S10       29.93S
GRAHAM         CLEAR     80  68  66 SE5       29.91S
MINERAL WELLS  CLEAR     76  68  76 SE5       29.92R
STEPHENVILLE   CLEAR     78  68  71 S6        29.98S
COMANCHE       CLEAR     80  70  71 S9        29.96S
BROWNWOOD      CLEAR     79  68  69 S6        29.97R
COLEMAN        CLEAR     78  67  69 S6        29.98R
BRADY          CLEAR     81  73  78 S7        29.99R
$$

TXZ143>147-156>162-174-175-051100-
CENTRAL TEXAS

CITY           SKY/WX    TMP DP  RH WIND       PRES   REMARKS
WACO           CLEAR     81  73  76 S16       29.95S
HILLSBORO      CLEAR     81  68  66 S10       29.95S
CORSICANA      CLEAR     81  72  74 S9        29.96S
MEXIA          CLEAR     78  74  86 S8G18     29.96F
HEARNE         CLOUDY    78  76  92 S6        29.98S
CAMERON        PTCLDY    79  75  88 S10       29.96F
TEMPLE         CLEAR     79  70  73 S13       29.97R
KILLEEN        CLEAR     78  73  84 S10       29.96F
KILLEEN-SKYLRK CLEAR     79  70  73 S10       29.95F
FORT HOOD      CLEAR     78  73  82 S13       29.96S
GATESVILLE     CLEAR     81  72  74 S6        29.99S
HAMILTON       CLEAR     79  69  69 S10       29.98S
LAMPASAS       CLEAR     78  73  84 S7        29.97S
$$

TXZ095>097-106>112-122>126-135>138-148>153-164>167-051100-
EAST TEXAS

CITY           SKY/WX    TMP DP  RH WIND       PRES   REMARKS
PARIS          CLEAR     79  64  61 S6        29.95S
SULPHUR SPRNGS PTCLDY    82  69  64 SW7       29.97R
MOUNT PLEASANT PTCLDY    82  69  65 CALM      29.96R
GILMER         PTCLDY    78  70  77 S6        29.95F
MINEOLA        MOCLDY    82  72  69 S9        29.95F
TYLER          CLEAR     82  71  69 S12       29.96S
LONGVIEW       CLEAR     81  72  74 SW10      29.96R
MARSHALL       CLEAR     80  74  81 S5        29.98S
ATHENS         PTCLDY    77  70  78 S6        29.95S
PALESTINE      CLEAR     79  73  83 S5        29.98F
JACKSONVILLE   CLEAR     78  72  81 S7        30.01S
HENDERSON      CLEAR     77  72  83 CALM      29.98S
CENTER         FAIR      81  73  77 S5        29.97S
NACOGDOCHES    CLEAR     77  73  88 CALM      29.98S
LUFKIN         CLEAR     78  74  87 SW3       29.98S
$$

SUPPLEMENTAL OBSERVATIONS (CENTRAL)

CITY           SKY/WX    TMP DP  RH WIND       PRES   REMARKS
LAKE TEXOMA      N/A     81  68  65 S3          N/A
PAT MAYSE LAKE   N/A     81  70  69 SE6         N/A
GREENVILLE       N/A     82  68  61 SW7         N/A
CEDAR HILL       N/A     82  68  61 S6G14       N/A
ATHENS           N/A     79  70  73 S8          N/A
LAKE LIMESTONE   N/A     79  73  83 S8          N/A
MCGREGOR         N/A     79  72  78 S12         N/A
TEMPLE           N/A     79  73  83 S13         N/A
$$

SUPPLEMENTAL OBSERVATIONS (WEST)

CITY           SKY/WX    TMP DP  RH WIND       PRES   REMARKS
MILLERS CREEK    N/A     81  66  61 S8          N/A
POSSUM KINGDOM   N/A     81  64  57 S7          N/A
GRANBURY         N/A     82  66  57 SE8         N/A
COMANCHE         N/A     79  66  65 S9          N/A
HAMBY            N/A     79  63  57 S9          N/A
IVIE RESERVOIR   N/A     81  68  65 SE7         N/A
COLORADO BEND    N/A     79  70  73 SW7         N/A
$$

SUPPLEMENTAL OBSERVATIONS (EAST)

CITY           SKY/WX    TMP DP  RH WIND       PRES   REMARKS
CLARKSVILLE      N/A     79  68  69 S3          N/A
TEXARKANA        N/A     73  70  88 CALM        N/A
LINDEN           N/A     81  70  69 S2          N/A
CADDO LAKE       N/A     79  72  78 SW2         N/A
GILMER           N/A     79  70  73 SW5         N/A
HENDERSON        N/A     79  72  78 S7          N/A
LUFKIN           N/A     75  72  88 MISG        N/A
N SABINE NF      N/A     77  72  83 MISG        N/A
S SABINE NF      N/A     75  70  83 CALM        N/A
$$

SUPPLEMENTAL OBSERVATIONS ARE A COLLECTION OF AUTOMATED INSTRUMENTS
THAT ARE MAINTAINED BY A VARIETY OF FEDERAL AND STATE AGENCIES.
CERTAIN ELEMENTS...SUCH AS HUMIDITY VALUES AND SUSTAINED WIND
SPEEDS...MAY BE APPROXIMATED.




USA.gov is the U.S. government's official web portal to all federal, state and local government web resources and services.